Location: Boissi�res
(45.2500°N, 2.3667°E)
Time: 09:47:14
(UTC+00:00)

Resurs 01 Rocket - Pass Details

Date: 03 March 2021
Orbit: 635 x 643 km, 98.0° (Epoch: 18 April)

Event Time Altitude Azimuth Distance (km) Brightness Sun altitude
Exits shadow 20:50:14 23° 330° (NNW) 1,355 3.7 -33.2°
Drops below altitude 10° 20:52:00 10° 338° (NNW) 2,033 4.7 -33.5°
Sets 20:54:16 0° 343° (NNW) 2,947 5.6 -33.9°
